sat.trackr.live / text

‹ back to catalog

STARLINK-30070

NORAD 56707 · 2023-067V

PAYLOAD ACTIVE UNKNOWN

§ Identity

Operator
Country
US
Launch date
2023-05-19
Launch site
AFETR
Launch vehicle
Mass (kg)
RCS (m²)

Purposes: comms

External: N2YO · Heavens-Above · Gunter

§ Orbital elements

Epoch: 2026-09-20T10:32:13.896672Z

Period
94.27 min
Inclination
43.0027°
Eccentricity
0.0001526
Mean motion
15.27579978 rev/d
Perigee alt
482.0 km
Apogee alt
484.1 km
Semi-major
6,861.2 km
B*
4.4629e-5
RAAN
251.2882°
Arg perigee
263.4389°
Mean anomaly
96.6289°
Rev number
18,548

§ Raw data

STARLINK-300701 56707U 23067V   26263.43904973  .00000966  00000+0  44629-4 0  99902 56707  43.0027 251.2882 0001526 263.4389  96.6289 15.27579978185486

JSON: /api/v1/satellites/56707 · /tle

For live sub-satellite position, see the globe view (requires WebGL).

§ Visibility from observer

Set your observer location to see the next 7 days of passes ≥ 10°. The values pass through the URL so the page stays shareable.

No JS? Fill the form by hand. The geolocation button needs JavaScript.